FW5436 Weather Reports


time (UTC)temp
C
wind
direction
speed
KPH
gust
KPH
rain 1hr
cm
rain 24hr
cm
rain mn
cm
humidity
%
barometer
mb
20260902173730 15 68 4.8 14.5 0.00 0.00 0.00 87 1008.5
20260902172709 15 23 6.4 12.9 0.00 0.00 0.00 86 1008.9
20260902172159 15 135 4.8 11.3 0.00 0.00 0.00 86 1009.1
20260902171649 15 158 6.4 12.9 0.00 0.00 0.00 86 1009.2
20260902171138 14 270 3.2 17.7 0.00 0.00 0.00 87 1009.5
20260902170628 14 113 6.4 17.7 0.00 0.00 0.00 87 1009.4
20260902170119 14 135 4.8 14.5 0.00 0.00 0.00 88 1009.7
20260902165608 15 90 6.4 12.9 0.00 0.00 0.00 87 1010.4
20260902165058 15 68 3.2 12.9 0.00 0.00 0.00 86 1010.4
20260902164043 15 315 1.6 9.7 0.00 0.00 0.00 86 1010.9
20260902163018 15 68 6.4 17.7 0.00 0.00 0.00 86 1010.8
20260902161447 14 45 3.2 14.5 0.00 0.00 0.00 86 1011.3
20260902160937 14 68 3.2 14.5 0.00 0.00 0.00 86 1011.7
20260902160427 15 45 4.8 14.5 0.00 0.00 0.00 85 1011.6
20260902155916 14 113 3.2 14.5 0.00 0.00 0.00 85 1011.8
20260902155407 14 338 4.8 12.9 0.00 0.00 0.00 84 1011.7
20260902154856 15 45 6.4 14.5 0.00 0.00 0.00 83 1011.3
20260902154345 14 68 6.4 17.7 0.00 0.00 0.00 84 1011.5
20260902153836 14 68 6.4 17.7 0.00 0.00 0.00 83 1012.0
20260902152816 14 113 3.2 17.7 0.00 0.00 0.00 82 1011.9
20260902152308 14 90 9.7 17.7 0.00 0.00 0.00 81 1011.9
20260902151756 14 135 3.2 12.9 0.00 0.00 0.00 81 1012.0
20260902151245 13 158 3.2 12.9 0.00 0.00 0.00 83 1011.7
20260902150735 13 338 4.8 14.5 0.00 0.00 0.00 84 1012.0
20260902150225 13 248 6.4 14.5 0.00 0.00 0.00 84 1012.1
20260902145716 13 45 6.4 12.9 0.00 0.00 0.00 84 1012.8
20260902144145 13 90 4.8 12.9 0.00 0.00 0.00 86 1013.6
20260902143634 13 203 4.8 12.9 0.00 0.00 0.00 86 1013.8
20260902143124 13 90 6.4 12.9 0.00 0.00 0.00 86 1014.2
20260902142105 13 90 6.4 11.3 0.00 0.00 0.00 86 1013.9
20260902141554 13 90 3.2 11.3 0.00 0.00 0.00 87 1014.0
20260902141044 12 45 3.2 11.3 0.00 0.00 0.00 88 1013.9
20260902140533 12 68 3.2 11.3 0.00 0.00 0.00 89 1013.9
20260902140023 12 45 3.2 11.3 0.00 0.00 0.00 89 1014.2
20260902135514 12 68 3.2 12.9 0.00 0.00 0.00 90 1014.1
20260902135004 12 68 4.8 12.9 0.00 0.00 0.00 91 1014.5
20260902134453 12 68 3.2 12.9 0.00 0.00 0.00 92 1014.4
20260902133943 12 113 1.6 6.4 0.00 0.00 0.00 92 1014.5
20260902133432 12 68 1.6 11.3 0.00 0.00 0.00 92 1014.3
20260902132923 12 90 1.6 11.3 0.00 0.00 0.00 92 1014.3
20260902132412 12 90 3.2 12.9 0.00 0.00 0.00 93 1014.4
20260902131902 12 225 3.2 12.9 0.00 0.00 0.00 93 1014.6
20260902131352 12 113 3.2 11.3 0.00 0.00 0.00 94 1014.9
20260902130842 11 135 3.2 11.3 0.00 0.00 0.00 94 1014.9
20260902130331 11 45 3.2 11.3 0.00 0.00 0.00 94 1015.1
20260902125828 11 158 4.8 11.3 0.00 0.00 0.00 95 1015.4
20260902125312 11 0 4.8 6.4 0.00 0.00 0.00 95 1015.3
20260902124802 11 270 3.2 9.7 0.00 0.00 0.00 95 1015.4
20260902124251 11 45 4.8 14.5 0.00 0.00 0.00 96 1015.4
20260902123741 11 90 3.2 14.5 0.00 0.00 0.00 96 1015.6
20260902123230 11 68 6.4 14.5 0.00 0.00 0.00 96 1015.6
20260902122721 11 45 4.8 14.5 0.00 0.00 0.00 96 1015.3
20260902122211 11 90 3.2 12.9 0.00 0.00 0.00 96 1015.5
20260902121702 11 225 3.2 6.4 0.00 0.00 0.00 97 1015.6
20260902121155 11 45 3.2 11.3 0.00 0.00 0.00 97 1015.6
20260902120640 11 45 3.2 11.3 0.00 0.00 0.00 97 1015.8
20260902120130 11 68 4.8 6.4 0.00 0.00 0.00 98 1015.8
20260902115109 11 45 3.2 6.4 0.00 0.00 0.00 98 1015.7
20260902114600 10 45 3.2 9.7 0.00 0.00 0.00 98 1015.8
20260902114050 10 68 4.8 9.7 0.00 0.00 0.00 99 1015.8
20260902113540 10 113 4.8 9.7 0.00 0.00 0.00 99 1015.7
20260902112520 10 113 3.2 11.3 0.00 0.00 0.00 99 1015.7
20260902112008 10 203 1.6 6.4 0.00 0.00 0.00 99 1015.4
20260902111500 10 158 3.2 6.4 0.00 0.00 0.00 99 1015.5
20260902110948 10 113 3.2 9.7 0.00 0.00 0.00 99 1015.5
20260902110438 10 225 0.0 9.7 0.00 0.00 0.00 99 1015.4
20260902105418 10 45 1.6 9.7 0.00 0.00 0.00 99 1015.8
20260902104908 10 45 3.2 6.4 0.00 0.00 0.00 99 1015.7
20260902104358 10 338 1.6 6.4 0.00 0.00 0.00 99 1015.8
20260902103337 9 68 1.6 6.4 0.00 0.00 0.00 99 1015.8
20260902102827 9 23 1.6 9.7 0.00 0.00 0.00 99 1015.7
20260902102318 9 203 3.2 9.7 0.00 0.00 0.00 99 1015.7
20260902101808 9 68 3.2 9.7 0.00 0.00 0.00 99 1015.4
20260902101257 9 135 4.8 9.7 0.00 0.00 0.00 99 1015.4
20260902100747 9 90 3.2 9.7 0.00 0.00 0.00 99 1015.2
20260902100237 9 270 0.0 6.4 0.00 0.00 0.00 99 1014.8
20260902095726 9 90 3.2 6.4 0.00 0.00 0.00 99 1015.2
20260902095217 9 135 1.6 6.4 0.00 0.00 0.00 99 1015.3
20260902094716 9 45 3.2 6.4 0.00 0.00 0.00 99 1015.2
20260902093646 9 248 1.6 6.4 0.00 0.00 0.00 99 1015.3
20260902093136 9 113 0.0 6.4 0.00 0.00 0.00 99 1015.4
20260902092626 9 90 1.6 6.4 0.00 0.00 0.00 99 1015.1
20260902092115 9 23 0.0 3.2 0.00 0.00 0.00 99 1015.3
20260902091610 9 90 0.0 6.4 0.00 0.00 0.00 99 1015.5
20260902091057 9 90 1.6 6.4 0.00 0.00 0.00 99 1015.6
20260902090545 9 68 1.6 6.4 0.00 0.00 0.00 99 1015.8
20260902090035 9 68 0.0 6.4 0.00 0.00 0.00 99 1015.6
20260902085525 9 45 3.2 6.4 0.00 0.00 0.00 99 1015.8
20260902085015 9 68 1.6 6.4 0.00 0.00 0.00 99 1015.6
20260902084504 9 68 1.6 6.4 0.00 0.00 0.00 99 1015.6
20260902083956 9 23 1.6 9.7 0.00 0.00 0.00 99 1015.7
20260902083444 9 90 3.2 9.7 0.00 0.00 0.00 99 1015.7
20260902082934 10 45 3.2 6.4 0.00 0.00 0.00 99 1015.7
20260902081914 10 113 1.6 6.4 0.00 0.00 0.00 99 1015.7
20260902081403 10 338 1.6 6.4 0.00 0.00 0.00 99 1015.6
20260902080343 9 23 3.2 6.4 0.00 0.00 0.00 99 1015.7
20260902075833 9 90 3.2 6.4 0.00 0.00 0.00 99 1015.6
20260902075323 9 90 3.2 6.4 0.00 0.00 0.00 99 1015.7
20260902074813 9 338 3.2 6.4 0.00 0.00 0.00 99 1016.0
20260902074303 8 45 3.2 6.4 0.00 0.00 0.00 99 1015.7
20260902073753 8 90 3.2 6.4 0.00 0.00 0.00 99 1015.7
20260902072733 8 68 0.0 3.2 0.00 0.00 0.00 99 1015.8
20260902072222 8 23 1.6 3.2 0.00 0.00 0.00 99 1015.7
20260902071202 8 270 1.6 3.2 0.00 0.00 0.00 99 1015.9
20260902070652 8 113 1.6 3.2 0.00 0.00 0.00 99 1015.9
20260902070142 8 135 1.6 6.4 0.00 0.00 0.00 99 1016.1
20260902065631 8 135 1.6 6.4 0.00 0.00 0.00 99 1016.0
20260902065121 8 68 1.6 3.2 0.00 0.00 0.00 99 1016.1
20260902064611 8 45 0.0 3.2 0.00 0.00 0.00 99 1016.3
20260902064101 8 68 1.6 3.2 0.00 0.00 0.00 99 1016.5
20260902063550 8 68 0.0 3.2 0.00 0.00 0.00 99 1016.5
20260902063042 8 68 0.0 6.4 0.00 0.00 0.00 99 1016.6
20260902062530 8 45 1.6 6.4 0.00 0.00 0.00 99 1017.0
20260902062020 8 45 1.6 6.4 0.00 0.00 0.00 99 1016.9
20260902061513 8 113 3.2 6.4 0.00 0.00 0.00 99 1017.0
20260902060452 8 45 3.2 6.4 0.00 0.00 0.00 99 1017.0
20260902055430 9 23 0.0 3.2 0.00 0.00 0.00 99 1017.1
20260902054919 9 68 1.6 3.2 0.00 0.00 0.00 99 1017.2
20260902054409 9 23 1.6 3.2 0.00 0.00 0.00 99 1017.3
20260902053900 9 68 1.6 3.2 0.00 0.00 0.00 99 1017.5
20260902053403 9 113 1.6 0.0 0.00 0.00 0.00 99 1017.5
20260902052625 8 23 1.6 6.4 0.00 0.00 0.00 99 1017.7
20260902051605 9 45 0.0 3.2 0.00 0.00 0.00 99 1017.7
20260902051055 9 68 1.6 6.4 0.00 0.00 0.00 99 1017.8
20260902050544 8 45 0.0 6.4 0.00 0.00 0.00 99 1017.8
20260902050034 8 45 3.2 6.4 0.00 0.00 0.00 99 1018.0
20260902045524 9 90 1.6 6.4 0.00 0.00 0.00 99 1018.1
20260902045014 9 23 1.6 3.2 0.00 0.00 0.00 99 1018.1
20260902044504 9 90 1.6 3.2 0.00 0.00 0.00 99 1018.2
20260902043954 9 68 1.6 3.2 0.00 0.00 0.00 99 1018.2
20260902043443 9 68 1.6 3.2 0.00 0.00 0.00 99 1018.3
20260902042933 9 113 0.0 3.2 0.00 0.00 0.00 99 1018.3
20260902042423 9 180 1.6 3.2 0.00 0.00 0.00 99 1018.4
20260902041913 9 90 0.0 3.2 0.00 0.00 0.00 99 1018.3
20260902041403 9 113 1.6 3.2 0.00 0.00 0.00 99 1018.4
20260902040852 9 68 3.2 3.2 0.00 0.00 0.00 99 1018.3
20260902035832 10 68 1.6 3.2 0.00 0.00 0.00 99 1018.2
20260902034816 9 68 0.0 3.2 0.00 0.00 0.00 99 1018.1
20260902034302 9 68 0.0 3.2 0.00 0.00 0.00 99 1018.3
20260902033752 9 293 0.0 3.2 0.00 0.00 0.00 99 1018.4
20260902033241 9 90 0.0 3.2 0.00 0.00 0.00 99 1018.4
20260902032731 9 68 1.6 3.2 0.00 0.00 0.00 99 1018.4
20260902031711 9 45 0.0 3.2 0.00 0.00 0.00 98 1018.5
20260902031201 9 225 0.0 3.2 0.00 0.00 0.00 98 1018.4
20260902030652 9 68 3.2 3.2 0.00 0.00 0.00 98 1018.6
20260902030140 10 68 3.2 3.2 0.00 0.00 0.00 98 1018.4
20260902025631 10 90 0.0 3.2 0.00 0.00 0.00 98 1018.6
20260902025121 10 45 0.0 0.0 0.00 0.00 0.00 98 1018.8
20260902024610 10 180 0.0 0.0 0.00 0.00 0.00 98 1018.7
20260902024101 10 158 0.0 3.2 0.00 0.00 0.00 98 1019.0
20260902023550 10 158 1.6 3.2 0.00 0.00 0.00 98 1019.1
20260902023042 10 180 0.0 3.2 0.00 0.00 0.00 98 1019.0
20260902022019 10 68 0.0 3.2 0.00 0.00 0.00 98 1019.2
20260902021512 10 68 1.6 3.2 0.00 0.00 0.00 98 1019.1
20260902020448 10 68 0.0 3.2 0.00 0.00 0.00 98 1019.3
20260902015939 10 338 1.6 3.2 0.00 0.00 0.00 98 1019.3
20260902015428 10 68 0.0 3.2 0.00 0.00 0.00 98 1019.2
20260902014409 10 45 0.0 3.2 0.00 0.00 0.00 98 1019.4
20260902013858 10 68 1.6 3.2 0.00 0.00 0.00 98 1019.3
20260902013349 10 90 0.0 3.2 0.00 0.00 0.00 98 1019.4
20260902012838 10 68 0.0 3.2 0.00 0.00 0.00 98 1019.1
20260902012329 10 158 0.0 6.4 0.00 0.00 0.00 98 1019.3
20260902011818 10 23 3.2 6.4 0.00 0.00 0.00 98 1019.4
20260902011307 10 45 0.0 3.2 0.00 0.00 0.00 98 1019.2
20260902005737 10 45 0.0 3.2 0.00 0.00 0.00 98 1019.0
20260902004721 10 90 0.0 3.2 0.00 0.00 0.00 97 1019.2
20260902004206 11 113 1.6 3.2 0.00 0.00 0.00 97 1019.2
20260902003657 11 203 0.0 3.2 0.00 0.00 0.00 97 1019.0
20260902003146 11 180 0.0 3.2 0.00 0.00 0.00 97 1019.2
20260902002637 11 203 0.0 3.2 0.00 0.00 0.00 97 1019.0
20260902002127 11 68 0.0 3.2 0.00 0.00 0.00 97 1018.9
20260902001616 11 0 0.0 3.2 0.00 0.00 0.00 97 1019.0
20260902001106 11 68 0.0 3.2 0.00 0.00 0.00 97 1019.0
20260902000600 11 338 0.0 3.2 0.00 0.00 0.00 97 1019.2
20260902000052 11 68 0.0 3.2 0.00 0.00 0.00 97 1018.9
20260901235536 11 45 0.0 3.2 0.00 0.00 0.00 97 1019.0
20260901234515 11 68 0.0 3.2 0.00 0.00 0.00 97 1019.2
20260901233455 11 113 0.0 3.2 0.00 0.00 0.00 97 1019.1
20260901232944 11 113 0.0 3.2 0.00 0.00 0.00 97 1019.2
20260901232434 11 0 0.0 3.2 0.00 0.00 0.00 97 1019.3
20260901231925 11 315 0.0 3.2 0.00 0.00 0.00 97 1019.2
20260901231414 11 45 0.0 3.2 0.00 0.00 0.00 97 1019.2
20260901230904 11 135 0.0 3.2 0.00 0.00 0.00 96 1019.1
20260901230353 11 23 3.2 3.2 0.00 0.00 0.00 96 1019.4
20260901225334 11 68 1.6 3.2 0.00 0.00 0.00 96 1019.1
20260901224823 11 68 1.6 3.2 0.00 0.00 0.00 96 1019.1
20260901223802 11 203 1.6 3.2 0.00 0.00 0.00 96 1019.0
20260901223252 11 23 1.6 3.2 0.00 0.00 0.00 95 1019.0
20260901222744 11 68 0.0 3.2 0.00 0.00 0.00 95 1019.3
20260901222232 11 68 1.6 3.2 0.00 0.00 0.00 95 1019.2
20260901221723 11 45 1.6 3.2 0.00 0.00 0.00 95 1019.0
20260901221213 11 113 0.0 3.2 0.00 0.00 0.00 95 1019.1
20260901220702 11 68 0.0 3.2 0.00 0.00 0.00 95 1019.2
20260901220152 11 68 0.0 3.2 0.00 0.00 0.00 95 1019.0
20260901215641 11 0 0.0 3.2 0.00 0.00 0.00 94 1018.8
20260901215132 11 68 0.0 3.2 0.00 0.00 0.00 94 1018.8
20260901214622 11 68 0.0 3.2 0.00 0.00 0.00 94 1018.8
20260901214111 11 0 0.0 3.2 0.00 0.00 0.00 94 1018.8
20260901213051 11 338 0.0 3.2 0.00 0.00 0.00 94 1018.6
20260901212541 11 158 0.0 3.2 0.00 0.00 0.00 94 1018.6
20260901212030 11 0 0.0 6.4 0.00 0.00 0.00 94 1018.6
20260901211521 11 113 0.0 6.4 0.00 0.00 0.00 94 1018.4
20260901210500 12 338 0.0 3.2 0.00 0.00 0.00 93 1018.6
20260901205950 12 68 0.0 3.2 0.00 0.00 0.00 93 1018.5
20260901205440 12 23 0.0 3.2 0.00 0.00 0.00 93 1018.5
20260901204930 12 270 0.0 3.2 0.00 0.00 0.00 93 1018.5
20260901204420 12 68 0.0 3.2 0.00 0.00 0.00 92 1018.6
20260901203910 12 113 0.0 3.2 0.00 0.00 0.00 92 1018.8
20260901203400 12 23 0.0 3.2 0.00 0.00 0.00 92 1018.8
20260901202850 12 225 0.0 3.2 0.00 0.00 0.00 92 1018.7
20260901202343 12 225 0.0 3.2 0.00 0.00 0.00 92 1018.7
20260901201829 12 23 0.0 6.4 0.00 0.00 0.00 92 1018.5
20260901200258 12 180 3.2 6.4 0.00 0.00 0.00 92 1018.6
20260901195748 12 0 0.0 3.2 0.00 0.00 0.00 91 1018.4
20260901194728 12 293 0.0 3.2 0.00 0.00 0.00 91 1018.4
20260901193708 12 315 0.0 6.4 0.00 0.00 0.00 91 1018.2
20260901193158 12 248 0.0 6.4 0.00 0.00 0.00 91 1018.5
20260901192653 12 90 0.0 3.2 0.00 0.00 0.00 91 1018.2
20260901191628 12 45 1.6 6.4 0.00 0.00 0.00 91 1018.2
20260901191118 12 203 3.2 6.4 0.00 0.00 0.00 91 1018.1
20260901190607 12 248 0.0 6.4 0.00 0.00 0.00 90 1018.2
20260901190101 13 248 3.2 6.4 0.00 0.00 0.00 89 1018.1
20260901185038 13 338 0.0 3.2 0.00 0.00 0.00 88 1018.3
20260901184526 13 113 1.6 6.4 0.00 0.00 0.00 87 1018.1
20260901184017 13 270 0.0 6.4 0.00 0.00 0.00 87 1018.2
20260901183506 13 45 3.2 6.4 0.00 0.00 0.00 86 1018.1
20260901182957 14 68 0.0 3.2 0.00 0.00 0.00 85 1018.3
20260901182446 14 338 0.0 3.2 0.00 0.00 0.00 83 1018.4
20260901181938 15 315 1.6 3.2 0.00 0.00 0.00 83 1018.4
20260901181426 15 45 0.0 3.2 0.00 0.00 0.00 83 1018.4
20260901180916 14 248 0.0 3.2 0.00 0.00 0.00 84 1018.3
20260901175345 14 203 0.0 3.2 0.00 0.00 0.00 85 1018.3
20260901174836 15 315 1.6 6.4 0.00 0.00 0.00 83 1018.3
20260901174324 15 0 0.0 6.4 0.00 0.00 0.00 82 1018.4